Wetterdaten: Montag, 07.04.2014
Datum Zeit Temperatur Luftfeuchte Luftdruck Regen Wind Richtung Richtung Taupunkt Windchill Windben
07.04.2014 00:00 5,8 C 92 % 1021,0 hPa 0,0 l/m 0,0 km/h (0 Bft) SW 225 4,6 C 0,0 C 0,0 km/h (0 Bft)
07.04.2014 00:05 5,6 C 92 % 1021,0 hPa 0,0 l/m 0,0 km/h (0 Bft) SW 225 4,4 C 0,0 C 0,0 km/h (0 Bft)
07.04.2014 00:10 5,5 C 92 % 1021,3 hPa 0,0 l/m 0,0 km/h (0 Bft) SW 225 4,3 C 0,0 C 0,0 km/h (0 Bft)
07.04.2014 00:15 5,6 C 92 % 1021,3 hPa 0,0 l/m 0,0 km/h (0 Bft) SW 225 4,4 C 0,0 C 0,0 km/h (0 Bft)
07.04.2014 00:20 5,6 C 92 % 1021,3 hPa 0,0 l/m 0,0 km/h (0 Bft) SW 225 4,4 C 0,0 C 0,0 km/h (0 Bft)
07.04.2014 00:25 5,4 C 92 % 1021,3 hPa 0,0 l/m 0,0 km/h (0 Bft) SW 225 4,2 C 0,0 C 0,0 km/h (0 Bft)
07.04.2014 00:30 5,4 C 92 % 1021,4 hPa 0,0 l/m 0,0 km/h (0 Bft) SW 225 4,2 C 0,0 C 0,0 km/h (0 Bft)
07.04.2014 00:35 5,4 C 92 % 1021,4 hPa 0,0 l/m 0,0 km/h (0 Bft) SW 225 4,2 C 0,0 C 0,0 km/h (0 Bft)
07.04.2014 00:40 5,4 C 92 % 1021,4 hPa 0,0 l/m 0,0 km/h (0 Bft) SW 225 4,2 C 0,0 C 0,0 km/h (0 Bft)
07.04.2014 00:45 4,9 C 92 % 1021,4 hPa 0,0 l/m 0,0 km/h (0 Bft) SW 225 3,7 C 0,0 C 0,0 km/h (0 Bft)
07.04.2014 00:50 5,0 C 92 % 1021,4 hPa 0,0 l/m 0,0 km/h (0 Bft) SW 225 3,8 C 0,0 C 0,0 km/h (0 Bft)
07.04.2014 00:55 4,8 C 92 % 1021,4 hPa 0,0 l/m 0,0 km/h (0 Bft) SW 225 3,6 C 0,0 C 0,0 km/h (0 Bft)
07.04.2014 01:00 5,0 C 92 % 1021,4 hPa 0,0 l/m 0,0 km/h (0 Bft) SW 225 3,8 C 0,0 C 0,0 km/h (0 Bft)
07.04.2014 01:05 4,9 C 92 % 1021,4 hPa 0,0 l/m 0,0 km/h (0 Bft) SW 225 3,7 C 0,0 C 0,0 km/h (0 Bft)
07.04.2014 01:10 4,9 C 92 % 1021,5 hPa 0,0 l/m 0,0 km/h (0 Bft) SW 225 3,7 C 0,0 C 0,0 km/h (0 Bft)
07.04.2014 01:15 4,7 C 92 % 1021,5 hPa 0,0 l/m 0,0 km/h (0 Bft) SW 225 3,5 C 0,0 C 0,0 km/h (0 Bft)
07.04.2014 01:20 4,6 C 92 % 1021,5 hPa 0,0 l/m 0,0 km/h (0 Bft) SW 225 3,4 C 0,0 C 0,0 km/h (0 Bft)
07.04.2014 01:25 4,9 C 92 % 1021,5 hPa 0,0 l/m 0,0 km/h (0 Bft) SW 225 3,7 C 0,0 C 0,0 km/h (0 Bft)
07.04.2014 01:30 4,7 C 92 % 1021,6 hPa 0,0 l/m 0,0 km/h (0 Bft) SW 225 3,5 C 0,0 C 0,0 km/h (0 Bft)
07.04.2014 01:35 4,4 C 92 % 1021,6 hPa 0,0 l/m 0,0 km/h (0 Bft) SW 225 3,2 C 0,0 C 0,0 km/h (0 Bft)
07.04.2014 01:40 4,8 C 92 % 1021,6 hPa 0,0 l/m 0,0 km/h (0 Bft) SW 225 3,6 C 0,0 C 0,0 km/h (0 Bft)
07.04.2014 01:45 4,7 C 92 % 1021,6 hPa 0,0 l/m 0,0 km/h (0 Bft) SW 225 3,5 C 0,0 C 0,0 km/h (0 Bft)
07.04.2014 01:50 4,7 C 92 % 1021,4 hPa 0,0 l/m 0,0 km/h (0 Bft) SW 225 3,5 C 0,0 C 0,0 km/h (0 Bft)
07.04.2014 01:55 4,9 C 92 % 1021,4 hPa 0,0 l/m 0,0 km/h (0 Bft) SW 225 3,7 C 0,0 C 0,0 km/h (0 Bft)
07.04.2014 02:00 4,8 C 92 % 1021,4 hPa 0,0 l/m 0,0 km/h (0 Bft) SW 225 3,6 C 0,0 C 0,0 km/h (0 Bft)
07.04.2014 02:05 4,6 C 92 % 1021,4 hPa 0,0 l/m 0,0 km/h (0 Bft) SW 225 3,4 C 0,0 C 0,0 km/h (0 Bft)
07.04.2014 02:10 4,5 C 92 % 1021,4 hPa 0,0 l/m 0,0 km/h (0 Bft) SW 225 3,3 C 0,0 C 0,0 km/h (0 Bft)
07.04.2014 02:15 4,4 C 92 % 1021,4 hPa 0,0 l/m 0,0 km/h (0 Bft) SW 225 3,2 C 0,0 C 0,0 km/h (0 Bft)
07.04.2014 02:20 4,4 C 93 % 1021,4 hPa 0,0 l/m 0,0 km/h (0 Bft) SW 225 3,4 C 0,0 C 0,0 km/h (0 Bft)
07.04.2014 02:25 4,5 C 93 % 1021,4 hPa 0,0 l/m 0,0 km/h (0 Bft) SW 225 3,5 C 0,0 C 0,0 km/h (0 Bft)
07.04.2014 02:30 4,3 C 93 % 1021,2 hPa 0,0 l/m 0,0 km/h (0 Bft) SW 225 3,3 C 0,0 C 0,0 km/h (0 Bft)
07.04.2014 02:35 4,4 C 93 % 1021,2 hPa 0,0 l/m 0,0 km/h (0 Bft) SW 225 3,4 C 0,0 C 0,0 km/h (0 Bft)
07.04.2014 02:40 4,4 C 93 % 1021,2 hPa 0,0 l/m 0,0 km/h (0 Bft) SW 225 3,4 C 0,0 C 0,0 km/h (0 Bft)
07.04.2014 02:45 4,3 C 94 % 1021,2 hPa 0,0 l/m 0,0 km/h (0 Bft) SW 225 3,4 C 0,0 C 0,0 km/h (0 Bft)
07.04.2014 02:48 4,3 C 94 % 1021,3 hPa 0,0 l/m 0,0 km/h (0 Bft) SW 225 3,4 C 0,0 C 0,0 km/h (0 Bft)
07.04.2014 02:50 4,3 C 94 % 1021,3 hPa 0,0 l/m 0,0 km/h (0 Bft) SW 225 3,4 C 0,0 C 0,0 km/h (0 Bft)
07.04.2014 02:55 4,5 C 94 % 1021,3 hPa 0,0 l/m 0,0 km/h (0 Bft) SW 225 3,6 C 0,0 C 0,0 km/h (0 Bft)
07.04.2014 03:00 4,4 C 94 % 1021,3 hPa 0,0 l/m 0,0 km/h (0 Bft) SW 225 3,5 C 0,0 C 0,0 km/h (0 Bft)
07.04.2014 03:05 4,0 C 94 % 1021,3 hPa 0,0 l/m 0,0 km/h (0 Bft) SW 225 3,1 C 0,0 C 0,0 km/h (0 Bft)
07.04.2014 03:10 4,0 C 94 % 1021,1 hPa 0,0 l/m 0,0 km/h (0 Bft) SW 225 3,1 C 0,0 C 0,0 km/h (0 Bft)
07.04.2014 03:15 3,9 C 95 % 1021,1 hPa 0,0 l/m 0,0 km/h (0 Bft) SW 225 3,2 C 0,0 C 0,0 km/h (0 Bft)
07.04.2014 03:20 3,9 C 95 % 1021,1 hPa 0,0 l/m 0,0 km/h (0 Bft) SW 225 3,2 C 0,0 C 0,0 km/h (0 Bft)
07.04.2014 03:25 4,1 C 95 % 1021,1 hPa 0,0 l/m 0,0 km/h (0 Bft) SW 225 3,4 C 0,0 C 0,0 km/h (0 Bft)
07.04.2014 03:30 4,4 C 95 % 1021,3 hPa 0,0 l/m 0,0 km/h (0 Bft) SW 225 3,7 C 0,0 C 0,0 km/h (0 Bft)
07.04.2014 03:35 4,5 C 95 % 1021,3 hPa 0,0 l/m 0,0 km/h (0 Bft) SW 225 3,8 C 0,0 C 0,0 km/h (0 Bft)
07.04.2014 03:40 4,5 C 95 % 1021,3 hPa 0,0 l/m 0,0 km/h (0 Bft) SW 225 3,8 C 0,0 C 0,0 km/h (0 Bft)
07.04.2014 03:45 4,4 C 95 % 1021,3 hPa 0,0 l/m 0,0 km/h (0 Bft) SW 225 3,7 C 0,0 C 0,0 km/h (0 Bft)
07.04.2014 03:50 4,5 C 95 % 1021,0 hPa 0,0 l/m 0,0 km/h (0 Bft) SW 225 3,8 C 0,0 C 0,0 km/h (0 Bft)
07.04.2014 03:55 4,3 C 95 % 1021,0 hPa 0,0 l/m 0,0 km/h (0 Bft) SW 225 3,6 C 0,0 C 0,0 km/h (0 Bft)
07.04.2014 04:00 4,2 C 95 % 1021,0 hPa 0,0 l/m 0,0 km/h (0 Bft) SW 225 3,5 C 0,0 C 0,0 km/h (0 Bft)
07.04.2014 04:05 4,0 C 95 % 1021,0 hPa 0,0 l/m 0,0 km/h (0 Bft) SW 225 3,3 C 0,0 C 0,0 km/h (0 Bft)
07.04.2014 04:10 3,8 C 95 % 1021,0 hPa 0,0 l/m 0,0 km/h (0 Bft) SW 225 3,1 C 0,0 C 0,0 km/h (0 Bft)
07.04.2014 04:15 3,7 C 96 % 1021,0 hPa 0,0 l/m 0,0 km/h (0 Bft) SW 225 3,1 C 0,0 C 0,0 km/h (0 Bft)
07.04.2014 04:20 3,8 C 96 % 1021,0 hPa 0,0 l/m 0,0 km/h (0 Bft) SW 225 3,2 C 0,0 C 0,0 km/h (0 Bft)
07.04.2014 04:25 4,0 C 95 % 1021,0 hPa 0,0 l/m 0,0 km/h (0 Bft) SW 225 3,3 C 0,0 C 0,0 km/h (0 Bft)
07.04.2014 04:30 3,9 C 96 % 1021,2 hPa 0,0 l/m 0,0 km/h (0 Bft) SW 225 3,3 C 0,0 C 0,0 km/h (0 Bft)
07.04.2014 04:35 3,9 C 96 % 1021,2 hPa 0,0 l/m 0,0 km/h (0 Bft) SW 225 3,3 C 0,0 C 0,0 km/h (0 Bft)
07.04.2014 04:40 3,6 C 96 % 1021,2 hPa 0,0 l/m 0,0 km/h (0 Bft) SW 225 3,0 C 0,0 C 0,0 km/h (0 Bft)
07.04.2014 04:45 3,5 C 96 % 1021,2 hPa 0,0 l/m 0,0 km/h (0 Bft) SW 225 2,9 C 0,0 C 0,0 km/h (0 Bft)
07.04.2014 04:50 3,4 C 96 % 1020,9 hPa 0,0 l/m 0,0 km/h (0 Bft) SW 225 2,8 C 0,0 C 0,0 km/h (0 Bft)
07.04.2014 04:55 3,4 C 96 % 1020,9 hPa 0,0 l/m 0,0 km/h (0 Bft) SW 225 2,8 C 0,0 C 0,0 km/h (0 Bft)
07.04.2014 05:00 3,5 C 96 % 1020,9 hPa 0,0 l/m 0,0 km/h (0 Bft) SW 225 2,9 C 0,0 C 0,0 km/h (0 Bft)
07.04.2014 05:05 3,9 C 96 % 1020,9 hPa 0,0 l/m 0,0 km/h (0 Bft) SW 225 3,3 C 0,0 C 0,0 km/h (0 Bft)
07.04.2014 05:10 3,9 C 96 % 1020,8 hPa 0,0 l/m 0,0 km/h (0 Bft) SW 225 3,3 C 0,0 C 0,0 km/h (0 Bft)
07.04.2014 05:15 4,0 C 96 % 1020,8 hPa 0,0 l/m 0,0 km/h (0 Bft) SW 225 3,4 C 0,0 C 0,0 km/h (0 Bft)
07.04.2014 05:20 4,2 C 96 % 1020,8 hPa 0,0 l/m 0,0 km/h (0 Bft) SW 225 3,6 C 0,0 C 0,0 km/h (0 Bft)
07.04.2014 05:25 4,2 C 96 % 1020,8 hPa 0,0 l/m 0,0 km/h (0 Bft) SW 225 3,6 C 0,0 C 0,0 km/h (0 Bft)
07.04.2014 05:30 4,2 C 96 % 1020,7 hPa 0,0 l/m 0,0 km/h (0 Bft) SW 225 3,6 C 0,0 C 0,0 km/h (0 Bft)
07.04.2014 05:35 4,4 C 96 % 1020,7 hPa 0,0 l/m 0,0 km/h (0 Bft) SW 225 3,8 C 0,0 C 0,0 km/h (0 Bft)
07.04.2014 05:40 4,4 C 96 % 1020,7 hPa 0,0 l/m 0,0 km/h (0 Bft) SW 225 3,8 C 0,0 C 0,0 km/h (0 Bft)
07.04.2014 05:45 4,3 C 96 % 1020,7 hPa 0,0 l/m 0,0 km/h (0 Bft) SW 225 3,7 C 0,0 C 0,0 km/h (0 Bft)
07.04.2014 05:50 4,5 C 96 % 1020,7 hPa 0,0 l/m 0,0 km/h (0 Bft) SW 225 3,9 C 0,0 C 0,0 km/h (0 Bft)
07.04.2014 05:55 4,3 C 96 % 1020,7 hPa 0,0 l/m 0,0 km/h (0 Bft) SW 225 3,7 C 0,0 C 0,0 km/h (0 Bft)
07.04.2014 06:00 4,1 C 96 % 1020,7 hPa 0,0 l/m 0,0 km/h (0 Bft) SW 225 3,5 C 0,0 C 0,0 km/h (0 Bft)
07.04.2014 06:05 3,9 C 96 % 1020,7 hPa 0,0 l/m 0,0 km/h (0 Bft) SW 225 3,3 C 0,0 C 0,0 km/h (0 Bft)
07.04.2014 06:10 3,8 C 96 % 1020,7 hPa 0,0 l/m 0,0 km/h (0 Bft) SW 225 3,2 C 0,0 C 0,0 km/h (0 Bft)
07.04.2014 06:15 3,6 C 96 % 1020,7 hPa 0,0 l/m 0,0 km/h (0 Bft) SW 225 3,0 C 0,0 C 0,0 km/h (0 Bft)
07.04.2014 06:20 3,5 C 96 % 1020,7 hPa 0,0 l/m 0,0 km/h (0 Bft) SW 225 2,9 C 0,0 C 0,0 km/h (0 Bft)
07.04.2014 06:25 3,4 C 96 % 1020,7 hPa 0,0 l/m 0,0 km/h (0 Bft) SW 225 2,8 C 0,0 C 0,0 km/h (0 Bft)
07.04.2014 06:30 3,8 C 96 % 1020,3 hPa 0,0 l/m 0,0 km/h (0 Bft) SW 225 3,2 C 0,0 C 0,0 km/h (0 Bft)
07.04.2014 06:35 3,7 C 96 % 1020,3 hPa 0,0 l/m 0,0 km/h (0 Bft) SW 225 3,1 C 0,0 C 0,0 km/h (0 Bft)
07.04.2014 06:40 3,6 C 96 % 1020,3 hPa 0,0 l/m 0,0 km/h (0 Bft) SW 225 3,0 C 0,0 C 0,0 km/h (0 Bft)
07.04.2014 06:45 3,7 C 96 % 1020,3 hPa 0,0 l/m 0,0 km/h (0 Bft) SW 225 3,1 C 0,0 C 0,0 km/h (0 Bft)
07.04.2014 06:50 3,8 C 96 % 1020,7 hPa 0,0 l/m 0,0 km/h (0 Bft) SW 225 3,2 C 0,0 C 0,0 km/h (0 Bft)
07.04.2014 06:55 3,7 C 96 % 1020,7 hPa 0,0 l/m 0,0 km/h (0 Bft) SW 225 3,1 C 0,0 C 0,0 km/h (0 Bft)
07.04.2014 07:00 3,6 C 96 % 1020,7 hPa 0,0 l/m 0,0 km/h (0 Bft) SW 225 3,0 C 0,0 C 0,0 km/h (0 Bft)
07.04.2014 07:05 3,4 C 96 % 1020,7 hPa 0,0 l/m 0,0 km/h (0 Bft) SW 225 2,8 C 0,0 C 0,0 km/h (0 Bft)
07.04.2014 07:10 3,6 C 96 % 1020,5 hPa 0,0 l/m 0,0 km/h (0 Bft) SW 225 3,0 C 0,0 C 0,0 km/h (0 Bft)
07.04.2014 07:15 3,5 C 96 % 1020,5 hPa 0,0 l/m 0,0 km/h (0 Bft) SW 225 2,9 C 0,0 C 0,0 km/h (0 Bft)
07.04.2014 07:20 4,0 C 96 % 1020,5 hPa 0,0 l/m 0,0 km/h (0 Bft) SW 225 3,4 C 0,0 C 0,0 km/h (0 Bft)
07.04.2014 07:25 3,9 C 96 % 1020,5 hPa 0,0 l/m 0,0 km/h (0 Bft) SW 225 3,3 C 0,0 C 0,0 km/h (0 Bft)
07.04.2014 07:30 4,1 C 96 % 1020,7 hPa 0,0 l/m 0,0 km/h (0 Bft) SW 225 3,5 C 0,0 C 0,0 km/h (0 Bft)
07.04.2014 07:35 4,2 C 96 % 1020,7 hPa 0,0 l/m 0,0 km/h (0 Bft) SW 225 3,6 C 0,0 C 0,0 km/h (0 Bft)
07.04.2014 07:40 4,3 C 96 % 1020,7 hPa 0,0 l/m 0,0 km/h (0 Bft) SW 225 3,7 C 0,0 C 0,0 km/h (0 Bft)
07.04.2014 07:45 4,5 C 96 % 1020,7 hPa 0,0 l/m 0,0 km/h (0 Bft) SW 225 3,9 C 0,0 C 0,0 km/h (0 Bft)
07.04.2014 07:49 4,6 C 96 % 1020,8 hPa 0,0 l/m 0,0 km/h (0 Bft) SW 225 4,0 C 0,0 C 0,0 km/h (0 Bft)
07.04.2014 07:50 4,6 C 96 % 1020,8 hPa 0,0 l/m 0,0 km/h (0 Bft) SW 225 4,0 C 0,0 C 0,0 km/h (0 Bft)
07.04.2014 07:55 5,1 C 96 % 1020,8 hPa 0,0 l/m 0,0 km/h (0 Bft) SW 225 4,5 C 0,0 C 0,0 km/h (0 Bft)
07.04.2014 08:00 5,5 C 96 % 1020,8 hPa 0,0 l/m 0,0 km/h (0 Bft) SW 225 4,9 C 0,0 C 0,0 km/h (0 Bft)
07.04.2014 08:05 6,0 C 95 % 1020,8 hPa 0,0 l/m 0,0 km/h (0 Bft) SW 225 5,3 C 0,0 C 0,0 km/h (0 Bft)
07.04.2014 08:10 6,1 C 95 % 1020,8 hPa 0,0 l/m 0,0 km/h (0 Bft) SW 225 5,4 C 0,0 C 0,0 km/h (0 Bft)
07.04.2014 08:15 6,5 C 95 % 1020,8 hPa 0,0 l/m 0,0 km/h (0 Bft) SW 225 5,8 C 0,0 C 0,0 km/h (0 Bft)
07.04.2014 08:20 8,7 C 95 % 1020,8 hPa 0,0 l/m 0,0 km/h (0 Bft) SW 225 7,9 C 0,0 C 0,0 km/h (0 Bft)
07.04.2014 08:25 10,2 C 94 % 1020,8 hPa 0,0 l/m 0,0 km/h (0 Bft) SW 225 9,3 C 0,0 C 0,0 km/h (0 Bft)
07.04.2014 08:30 10,4 C 93 % 1020,7 hPa 0,0 l/m 0,0 km/h (0 Bft) SW 225 9,3 C 0,0 C 0,0 km/h (0 Bft)
07.04.2014 08:35 10,6 C 92 % 1020,7 hPa 0,0 l/m 0,0 km/h (0 Bft) SW 225 9,4 C 0,0 C 0,0 km/h (0 Bft)
07.04.2014 08:40 10,9 C 91 % 1020,7 hPa 0,0 l/m 0,0 km/h (0 Bft) SW 225 9,5 C 0,0 C 0,0 km/h (0 Bft)
07.04.2014 08:45 11,8 C 89 % 1020,7 hPa 0,0 l/m 0,0 km/h (0 Bft) SW 225 10,0 C 0,0 C 0,0 km/h (0 Bft)
07.04.2014 08:50 12,5 C 88 % 1020,9 hPa 0,0 l/m 0,0 km/h (0 Bft) SW 225 10,6 C 0,0 C 0,0 km/h (0 Bft)
07.04.2014 08:55 13,2 C 86 % 1020,9 hPa 0,0 l/m 0,0 km/h (0 Bft) SW 225 10,9 C 0,0 C 0,0 km/h (0 Bft)
07.04.2014 09:00 13,1 C 85 % 1020,9 hPa 0,0 l/m 0,0 km/h (0 Bft) SW 225 10,6 C 0,0 C 0,0 km/h (0 Bft)
07.04.2014 09:05 14,9 C 82 % 1020,9 hPa 0,0 l/m 0,0 km/h (0 Bft) SW 225 11,9 C 0,0 C 0,0 km/h (0 Bft)
07.04.2014 09:10 15,0 C 79 % 1021,0 hPa 0,0 l/m 0,0 km/h (0 Bft) SW 225 11,4 C 0,0 C 0,0 km/h (0 Bft)
07.04.2014 09:15 15,2 C 73 % 1021,0 hPa 0,0 l/m 0,0 km/h (0 Bft) SW 225 10,4 C 0,0 C 0,0 km/h (0 Bft)
07.04.2014 09:20 15,3 C 76 % 1021,0 hPa 0,0 l/m 0,0 km/h (0 Bft) SW 225 11,1 C 0,0 C 0,0 km/h (0 Bft)
07.04.2014 09:25 16,1 C 77 % 1021,0 hPa 0,0 l/m 0,0 km/h (0 Bft) SW 225 12,1 C 0,0 C 0,0 km/h (0 Bft)
07.04.2014 09:30 16,5 C 76 % 1021,1 hPa 0,0 l/m 0,0 km/h (0 Bft) SW 225 12,3 C 0,0 C 0,0 km/h (0 Bft)
07.04.2014 09:35 17,1 C 74 % 1021,1 hPa 0,0 l/m 0,0 km/h (0 Bft) SW 225 12,4 C 0,0 C 0,0 km/h (0 Bft)
07.04.2014 09:40 16,2 C 59 % 1021,1 hPa 0,0 l/m 0,0 km/h (0 Bft) SW 225 8,2 C 0,0 C 0,0 km/h (0 Bft)
07.04.2014 09:45 16,6 C 66 % 1021,1 hPa 0,0 l/m 0,0 km/h (0 Bft) SW 225 10,2 C 0,0 C 0,0 km/h (0 Bft)
07.04.2014 09:50 17,6 C 69 % 1021,4 hPa 0,0 l/m 0,0 km/h (0 Bft) SW 225 11,8 C 0,0 C 0,0 km/h (0 Bft)
07.04.2014 09:55 17,4 C 70 % 1021,4 hPa 0,0 l/m 0,0 km/h (0 Bft) SW 225 11,9 C 0,0 C 0,0 km/h (0 Bft)
07.04.2014 10:00 16,8 C 56 % 1021,4 hPa 0,0 l/m 0,0 km/h (0 Bft) SW 225 8,0 C 0,0 C 0,0 km/h (0 Bft)
07.04.2014 10:05 17,1 C 65 % 1021,4 hPa 0,0 l/m 0,0 km/h (0 Bft) SW 225 10,5 C 0,0 C 0,0 km/h (0 Bft)
07.04.2014 10:10 17,6 C 68 % 1022,0 hPa 0,0 l/m 0,0 km/h (0 Bft) SW 225 11,6 C 0,0 C 0,0 km/h (0 Bft)
07.04.2014 10:15 18,9 C 70 % 1022,0 hPa 0,0 l/m 0,0 km/h (0 Bft) SW 225 13,3 C 0,0 C 0,0 km/h (0 Bft)
07.04.2014 10:20 18,7 C 61 % 1022,0 hPa 0,0 l/m 0,0 km/h (0 Bft) SW 225 11,0 C 0,0 C 0,0 km/h (0 Bft)
07.04.2014 10:25 18,9 C 62 % 1022,0 hPa 0,0 l/m 0,0 km/h (0 Bft) SW 225 11,5 C 0,0 C 0,0 km/h (0 Bft)
07.04.2014 10:30 18,9 C 53 % 1022,0 hPa 0,0 l/m 0,0 km/h (0 Bft) SW 225 9,1 C 0,0 C 0,0 km/h (0 Bft)
07.04.2014 10:35 18,5 C 52 % 1022,0 hPa 0,0 l/m 0,0 km/h (0 Bft) SW 225 8,5 C 0,0 C 0,0 km/h (0 Bft)
07.04.2014 10:40 18,3 C 47 % 1022,0 hPa 0,0 l/m 0,0 km/h (0 Bft) SW 225 6,8 C 0,0 C 0,0 km/h (0 Bft)
07.04.2014 10:45 17,6 C 46 % 1022,0 hPa 0,0 l/m 0,0 km/h (0 Bft) SW 225 5,8 C 0,0 C 0,0 km/h (0 Bft)
07.04.2014 10:50 17,7 C 45 % 1022,2 hPa 0,0 l/m 0,0 km/h (0 Bft) SW 225 5,6 C 0,0 C 0,0 km/h (0 Bft)
07.04.2014 10:55 18,4 C 46 % 1022,2 hPa 0,0 l/m 0,0 km/h (0 Bft) SW 225 6,6 C 0,0 C 0,0 km/h (0 Bft)
07.04.2014 11:00 18,3 C 46 % 1022,2 hPa 0,0 l/m 0,0 km/h (0 Bft) SW 225 6,5 C 0,0 C 0,0 km/h (0 Bft)
07.04.2014 11:05 18,3 C 44 % 1022,2 hPa 0,0 l/m 0,0 km/h (0 Bft) SW 225 5,8 C 0,0 C 0,0 km/h (0 Bft)
07.04.2014 11:10 18,0 C 42 % 1022,2 hPa 0,0 l/m 0,0 km/h (0 Bft) SW 225 4,9 C 0,0 C 0,0 km/h (0 Bft)
07.04.2014 11:15 19,1 C 42 % 1022,2 hPa 0,0 l/m 0,0 km/h (0 Bft) SW 225 5,9 C 0,0 C 0,0 km/h (0 Bft)
07.04.2014 11:20 18,9 C 43 % 1022,2 hPa 0,0 l/m 0,0 km/h (0 Bft) SW 225 6,0 C 0,0 C 0,0 km/h (0 Bft)
07.04.2014 11:25 19,1 C 42 % 1022,2 hPa 0,0 l/m 0,0 km/h (0 Bft) SW 225 5,9 C 0,0 C 0,0 km/h (0 Bft)
07.04.2014 11:30 18,7 C 42 % 1022,2 hPa 0,0 l/m 0,0 km/h (0 Bft) SW 225 5,5 C 0,0 C 0,0 km/h (0 Bft)
07.04.2014 11:35 19,5 C 42 % 1022,2 hPa 0,0 l/m 0,0 km/h (0 Bft) SW 225 6,2 C 0,0 C 0,0 km/h (0 Bft)
07.04.2014 11:40 20,0 C 42 % 1022,2 hPa 0,0 l/m 0,0 km/h (0 Bft) SW 225 6,7 C 0,0 C 0,0 km/h (0 Bft)
07.04.2014 11:45 19,3 C 40 % 1022,2 hPa 0,0 l/m 0,0 km/h (0 Bft) SW 225 5,4 C 0,0 C 0,0 km/h (0 Bft)
07.04.2014 11:50 19,2 C 38 % 1022,1 hPa 0,0 l/m 0,0 km/h (0 Bft) SW 225 4,5 C 0,0 C 0,0 km/h (0 Bft)
07.04.2014 11:55 19,7 C 41 % 1022,1 hPa 0,0 l/m 0,0 km/h (0 Bft) SW 225 6,1 C 0,0 C 0,0 km/h (0 Bft)
07.04.2014 12:00 20,0 C 42 % 1022,1 hPa 0,0 l/m 0,0 km/h (0 Bft) SW 225 6,7 C 0,0 C 0,0 km/h (0 Bft)
07.04.2014 12:05 19,4 C 38 % 1022,1 hPa 0,0 l/m 0,0 km/h (0 Bft) SW 225 4,7 C 0,0 C 0,0 km/h (0 Bft)
07.04.2014 12:10 19,5 C 39 % 1022,2 hPa 0,0 l/m 0,0 km/h (0 Bft) SW 225 5,2 C 0,0 C 0,0 km/h (0 Bft)
07.04.2014 12:15 20,2 C 41 % 1022,2 hPa 0,0 l/m 0,0 km/h (0 Bft) SW 225 6,5 C 0,0 C 0,0 km/h (0 Bft)
07.04.2014 12:20 19,9 C 41 % 1022,2 hPa 0,0 l/m 0,0 km/h (0 Bft) SW 225 6,3 C 0,0 C 0,0 km/h (0 Bft)
07.04.2014 12:25 19,5 C 35 % 1022,2 hPa 0,0 l/m 0,0 km/h (0 Bft) SW 225 3,6 C 0,0 C 0,0 km/h (0 Bft)
07.04.2014 12:30 19,4 C 37 % 1022,0 hPa 0,0 l/m 0,0 km/h (0 Bft) SW 225 4,3 C 0,0 C 0,0 km/h (0 Bft)
07.04.2014 12:35 19,6 C 36 % 1022,0 hPa 0,0 l/m 0,0 km/h (0 Bft) SW 225 4,1 C 0,0 C 0,0 km/h (0 Bft)
07.04.2014 12:40 20,0 C 37 % 1022,0 hPa 0,0 l/m 0,0 km/h (0 Bft) SW 225 4,9 C 0,0 C 0,0 km/h (0 Bft)
07.04.2014 12:44 19,9 C 37 % 1022,0 hPa 0,0 l/m 0,0 km/h (0 Bft) SW 225 4,8 C 0,0 C 0,0 km/h (0 Bft)
07.04.2014 12:45 19,9 C 37 % 1022,0 hPa 0,0 l/m 0,0 km/h (0 Bft) SW 225 4,8 C 0,0 C 0,0 km/h (0 Bft)
07.04.2014 12:50 20,1 C 37 % 1022,1 hPa 0,0 l/m 0,0 km/h (0 Bft) SW 225 5,0 C 0,0 C 0,0 km/h (0 Bft)
07.04.2014 12:55 20,2 C 38 % 1022,1 hPa 0,0 l/m 0,0 km/h (0 Bft) SW 225 5,4 C 0,0 C 0,0 km/h (0 Bft)
07.04.2014 13:00 20,2 C 38 % 1022,1 hPa 0,0 l/m 0,0 km/h (0 Bft) SW 225 5,4 C 0,0 C 0,0 km/h (0 Bft)
07.04.2014 13:05 20,8 C 39 % 1022,1 hPa 0,0 l/m 0,0 km/h (0 Bft) SW 225 6,3 C 0,0 C 0,0 km/h (0 Bft)
07.04.2014 13:10 19,9 C 39 % 1022,3 hPa 0,0 l/m 0,0 km/h (0 Bft) SW 225 5,5 C 0,0 C 0,0 km/h (0 Bft)
07.04.2014 13:15 20,4 C 39 % 1022,3 hPa 0,0 l/m 0,0 km/h (0 Bft) SW 225 6,0 C 0,0 C 0,0 km/h (0 Bft)
07.04.2014 13:20 19,8 C 38 % 1022,3 hPa 0,0 l/m 0,0 km/h (0 Bft) SW 225 5,1 C 0,0 C 0,0 km/h (0 Bft)
07.04.2014 13:25 20,0 C 39 % 1022,3 hPa 0,0 l/m 0,0 km/h (0 Bft) SW 225 5,6 C 0,0 C 0,0 km/h (0 Bft)
07.04.2014 13:30 20,0 C 37 % 1021,8 hPa 0,0 l/m 0,0 km/h (0 Bft) SW 225 4,9 C 0,0 C 0,0 km/h (0 Bft)
07.04.2014 13:35 20,7 C 38 % 1021,8 hPa 0,0 l/m 0,0 km/h (0 Bft) SW 225 5,9 C 0,0 C 0,0 km/h (0 Bft)
07.04.2014 13:40 20,7 C 38 % 1021,8 hPa 0,0 l/m 0,0 km/h (0 Bft) SW 225 5,9 C 0,0 C 0,0 km/h (0 Bft)
07.04.2014 13:45 20,6 C 38 % 1021,8 hPa 0,0 l/m 0,0 km/h (0 Bft) SW 225 5,8 C 0,0 C 0,0 km/h (0 Bft)
07.04.2014 13:50 20,3 C 37 % 1021,6 hPa 0,0 l/m 0,0 km/h (0 Bft) SW 225 5,1 C 0,0 C 0,0 km/h (0 Bft)
07.04.2014 13:55 20,1 C 37 % 1021,6 hPa 0,0 l/m 0,0 km/h (0 Bft) SW 225 5,0 C 0,0 C 0,0 km/h (0 Bft)
07.04.2014 14:00 20,2 C 36 % 1021,6 hPa 0,0 l/m 0,0 km/h (0 Bft) SW 225 4,7 C 0,0 C 0,0 km/h (0 Bft)
07.04.2014 14:05 20,3 C 37 % 1021,6 hPa 0,0 l/m 0,0 km/h (0 Bft) SW 225 5,1 C 0,0 C 0,0 km/h (0 Bft)
07.04.2014 14:10 20,7 C 36 % 1021,3 hPa 0,0 l/m 0,0 km/h (0 Bft) SW 225 5,1 C 0,0 C 0,0 km/h (0 Bft)
07.04.2014 14:15 21,3 C 35 % 1021,3 hPa 0,0 l/m 0,0 km/h (0 Bft) SW 225 5,2 C 0,0 C 0,0 km/h (0 Bft)
07.04.2014 14:20 20,4 C 35 % 1021,3 hPa 0,0 l/m 0,0 km/h (0 Bft) SW 225 4,4 C 0,0 C 0,0 km/h (0 Bft)
07.04.2014 14:25 20,8 C 35 % 1021,3 hPa 0,0 l/m 0,0 km/h (0 Bft) SW 225 4,8 C 0,0 C 0,0 km/h (0 Bft)
07.04.2014 14:30 20,7 C 34 % 1021,1 hPa 0,0 l/m 0,0 km/h (0 Bft) SW 225 4,3 C 0,0 C 0,0 km/h (0 Bft)
07.04.2014 14:35 20,6 C 34 % 1021,1 hPa 0,0 l/m 0,0 km/h (0 Bft) SW 225 4,2 C 0,0 C 0,0 km/h (0 Bft)
07.04.2014 14:40 21,4 C 34 % 1021,1 hPa 0,0 l/m 0,0 km/h (0 Bft) SW 225 4,9 C 0,0 C 0,0 km/h (0 Bft)
07.04.2014 14:45 20,7 C 33 % 1021,1 hPa 0,0 l/m 0,0 km/h (0 Bft) SW 225 3,9 C 0,0 C 0,0 km/h (0 Bft)
07.04.2014 14:50 20,6 C 33 % 1020,9 hPa 0,0 l/m 0,0 km/h (0 Bft) SW 225 3,8 C 0,0 C 0,0 km/h (0 Bft)
07.04.2014 14:55 21,3 C 33 % 1020,9 hPa 0,0 l/m 0,0 km/h (0 Bft) SW 225 4,4 C 0,0 C 0,0 km/h (0 Bft)
07.04.2014 15:00 20,9 C 33 % 1020,9 hPa 0,0 l/m 0,0 km/h (0 Bft) SW 225 4,0 C 0,0 C 0,0 km/h (0 Bft)
07.04.2014 15:05 20,9 C 33 % 1020,9 hPa 0,0 l/m 0,0 km/h (0 Bft) SW 225 4,0 C 0,0 C 0,0 km/h (0 Bft)
07.04.2014 15:10 21,4 C 33 % 1020,6 hPa 0,0 l/m 0,0 km/h (0 Bft) SW 225 4,5 C 0,0 C 0,0 km/h (0 Bft)
07.04.2014 15:15 21,3 C 33 % 1020,6 hPa 0,0 l/m 0,0 km/h (0 Bft) SW 225 4,4 C 0,0 C 0,0 km/h (0 Bft)
07.04.2014 15:20 21,5 C 32 % 1020,6 hPa 0,0 l/m 0,0 km/h (0 Bft) SW 225 4,1 C 0,0 C 0,0 km/h (0 Bft)
07.04.2014 15:25 20,8 C 34 % 1020,6 hPa 0,0 l/m 0,0 km/h (0 Bft) SW 225 4,4 C 0,0 C 0,0 km/h (0 Bft)
07.04.2014 15:30 20,5 C 33 % 1020,2 hPa 0,0 l/m 0,0 km/h (0 Bft) SW 225 3,7 C 0,0 C 0,0 km/h (0 Bft)
07.04.2014 15:35 21,2 C 33 % 1020,2 hPa 0,0 l/m 0,0 km/h (0 Bft) SW 225 4,3 C 0,0 C 0,0 km/h (0 Bft)
07.04.2014 15:40 20,8 C 33 % 1020,2 hPa 0,0 l/m 0,0 km/h (0 Bft) SW 225 3,9 C 0,0 C 0,0 km/h (0 Bft)
07.04.2014 15:45 20,9 C 34 % 1020,2 hPa 0,0 l/m 0,0 km/h (0 Bft) SW 225 4,4 C 0,0 C 0,0 km/h (0 Bft)
07.04.2014 15:50 20,5 C 34 % 1019,9 hPa 0,0 l/m 0,0 km/h (0 Bft) SW 225 4,1 C 0,0 C 0,0 km/h (0 Bft)
07.04.2014 15:55 20,7 C 35 % 1019,9 hPa 0,0 l/m 0,0 km/h (0 Bft) SW 225 4,7 C 0,0 C 0,0 km/h (0 Bft)
07.04.2014 16:00 20,8 C 35 % 1019,9 hPa 0,0 l/m 0,0 km/h (0 Bft) SW 225 4,8 C 0,0 C 0,0 km/h (0 Bft)
07.04.2014 16:05 20,5 C 35 % 1019,9 hPa 0,0 l/m 0,0 km/h (0 Bft) SW 225 4,5 C 0,0 C 0,0 km/h (0 Bft)
07.04.2014 16:10 20,6 C 35 % 1019,0 hPa 0,0 l/m 0,0 km/h (0 Bft) SW 225 4,6 C 0,0 C 0,0 km/h (0 Bft)
07.04.2014 16:15 20,4 C 35 % 1019,0 hPa 0,0 l/m 0,0 km/h (0 Bft) SW 225 4,4 C 0,0 C 0,0 km/h (0 Bft)
07.04.2014 16:20 20,5 C 34 % 1019,0 hPa 0,0 l/m 0,0 km/h (0 Bft) SW 225 4,1 C 0,0 C 0,0 km/h (0 Bft)
07.04.2014 16:25 20,5 C 35 % 1019,0 hPa 0,0 l/m 0,0 km/h (0 Bft) SW 225 4,5 C 0,0 C 0,0 km/h (0 Bft)
07.04.2014 16:30 20,3 C 35 % 1019,2 hPa 0,0 l/m 0,0 km/h (0 Bft) SW 225 4,3 C 0,0 C 0,0 km/h (0 Bft)
07.04.2014 16:35 20,3 C 34 % 1019,2 hPa 0,0 l/m 0,0 km/h (0 Bft) SW 225 3,9 C 0,0 C 0,0 km/h (0 Bft)
07.04.2014 16:40 20,3 C 34 % 1019,2 hPa 0,0 l/m 0,0 km/h (0 Bft) SW 225 3,9 C 0,0 C 0,0 km/h (0 Bft)
07.04.2014 16:45 20,5 C 35 % 1019,2 hPa 0,0 l/m 0,0 km/h (0 Bft) SW 225 4,5 C 0,0 C 0,0 km/h (0 Bft)
07.04.2014 16:50 20,6 C 35 % 1018,5 hPa 0,0 l/m 0,0 km/h (0 Bft) SW 225 4,6 C 0,0 C 0,0 km/h (0 Bft)
07.04.2014 16:55 20,2 C 35 % 1018,5 hPa 0,0 l/m 0,0 km/h (0 Bft) SW 225 4,2 C 0,0 C 0,0 km/h (0 Bft)
07.04.2014 17:00 20,1 C 35 % 1018,5 hPa 0,0 l/m 0,0 km/h (0 Bft) SW 225 4,2 C 0,0 C 0,0 km/h (0 Bft)
07.04.2014 17:05 19,9 C 35 % 1018,5 hPa 0,0 l/m 0,0 km/h (0 Bft) SW 225 4,0 C 0,0 C 0,0 km/h (0 Bft)
07.04.2014 17:10 19,8 C 35 % 1018,2 hPa 0,0 l/m 0,0 km/h (0 Bft) SW 225 3,9 C 0,0 C 0,0 km/h (0 Bft)
07.04.2014 17:15 19,7 C 36 % 1018,2 hPa 0,0 l/m 0,0 km/h (0 Bft) SW 225 4,2 C 0,0 C 0,0 km/h (0 Bft)
07.04.2014 17:20 19,4 C 36 % 1018,2 hPa 0,0 l/m 0,0 km/h (0 Bft) SW 225 3,9 C 0,0 C 0,0 km/h (0 Bft)
07.04.2014 17:25 19,3 C 36 % 1018,2 hPa 0,0 l/m 0,0 km/h (0 Bft) SW 225 3,9 C 0,0 C 0,0 km/h (0 Bft)
07.04.2014 17:30 19,4 C 37 % 1018,2 hPa 0,0 l/m 0,0 km/h (0 Bft) SW 225 4,3 C 0,0 C 0,0 km/h (0 Bft)
07.04.2014 17:35 19,2 C 37 % 1018,2 hPa 0,0 l/m 0,0 km/h (0 Bft) SW 225 4,2 C 0,0 C 0,0 km/h (0 Bft)
07.04.2014 17:40 18,9 C 38 % 1018,2 hPa 0,0 l/m 0,0 km/h (0 Bft) SW 225 4,3 C 0,0 C 0,0 km/h (0 Bft)
07.04.2014 17:44 18,8 C 39 % 1018,2 hPa 0,0 l/m 0,0 km/h (0 Bft) SW 225 4,6 C 0,0 C 0,0 km/h (0 Bft)
07.04.2014 17:45 18,8 C 39 % 1018,2 hPa 0,0 l/m 0,0 km/h (0 Bft) SW 225 4,6 C 0,0 C 0,0 km/h (0 Bft)
07.04.2014 17:50 18,7 C 38 % 1017,9 hPa 0,0 l/m 0,0 km/h (0 Bft) SW 225 4,1 C 0,0 C 0,0 km/h (0 Bft)
07.04.2014 17:55 18,7 C 39 % 1017,9 hPa 0,0 l/m 0,0 km/h (0 Bft) SW 225 4,5 C 0,0 C 0,0 km/h (0 Bft)
07.04.2014 18:00 18,5 C 40 % 1017,9 hPa 0,0 l/m 0,0 km/h (0 Bft) SW 225 4,6 C 0,0 C 0,0 km/h (0 Bft)
07.04.2014 18:05 18,4 C 40 % 1017,9 hPa 0,0 l/m 0,0 km/h (0 Bft) SW 225 4,6 C 0,0 C 0,0 km/h (0 Bft)
07.04.2014 18:10 18,1 C 42 % 1017,8 hPa 0,0 l/m 0,0 km/h (0 Bft) SW 225 5,0 C 0,0 C 0,0 km/h (0 Bft)
07.04.2014 18:15 17,8 C 44 % 1017,8 hPa 0,0 l/m 0,0 km/h (0 Bft) SW 225 5,4 C 0,0 C 0,0 km/h (0 Bft)
07.04.2014 18:20 17,6 C 45 % 1017,8 hPa 0,0 l/m 0,0 km/h (0 Bft) SW 225 5,5 C 0,0 C 0,0 km/h (0 Bft)
07.04.2014 18:25 17,5 C 45 % 1017,8 hPa 0,0 l/m 0,0 km/h (0 Bft) SW 225 5,4 C 0,0 C 0,0 km/h (0 Bft)
07.04.2014 18:30 17,3 C 45 % 1017,4 hPa 0,0 l/m 0,0 km/h (0 Bft) SW 225 5,3 C 0,0 C 0,0 km/h (0 Bft)
07.04.2014 18:35 17,0 C 47 % 1017,4 hPa 0,0 l/m 0,0 km/h (0 Bft) SW 225 5,6 C 0,0 C 0,0 km/h (0 Bft)
07.04.2014 18:40 16,7 C 49 % 1017,4 hPa 0,0 l/m 0,0 km/h (0 Bft) SW 225 5,9 C 0,0 C 0,0 km/h (0 Bft)
07.04.2014 18:45 16,7 C 49 % 1017,4 hPa 0,0 l/m 0,0 km/h (0 Bft) SW 225 5,9 C 0,0 C 0,0 km/h (0 Bft)
07.04.2014 18:50 16,6 C 49 % 1017,5 hPa 0,0 l/m 0,0 km/h (0 Bft) SW 225 5,8 C 0,0 C 0,0 km/h (0 Bft)
07.04.2014 18:55 16,4 C 50 % 1017,5 hPa 0,0 l/m 0,0 km/h (0 Bft) SW 225 6,0 C 0,0 C 0,0 km/h (0 Bft)
07.04.2014 19:00 16,3 C 49 % 1017,5 hPa 0,0 l/m 0,0 km/h (0 Bft) SW 225 5,6 C 0,0 C 0,0 km/h (0 Bft)
07.04.2014 19:05 15,9 C 52 % 1017,5 hPa 0,0 l/m 0,0 km/h (0 Bft) SW 225 6,1 C 0,0 C 0,0 km/h (0 Bft)
07.04.2014 19:10 15,7 C 56 % 1017,7 hPa 0,0 l/m 0,0 km/h (0 Bft) SW 225 6,9 C 0,0 C 0,0 km/h (0 Bft)
07.04.2014 19:15 15,4 C 57 % 1017,7 hPa 0,0 l/m 0,0 km/h (0 Bft) SW 225 6,9 C 0,0 C 0,0 km/h (0 Bft)
07.04.2014 19:20 15,1 C 57 % 1017,7 hPa 0,0 l/m 0,0 km/h (0 Bft) SW 225 6,6 C 0,0 C 0,0 km/h (0 Bft)
07.04.2014 19:25 15,1 C 56 % 1017,7 hPa 0,0 l/m 0,0 km/h (0 Bft) SW 225 6,4 C 0,0 C 0,0 km/h (0 Bft)
07.04.2014 19:30 14,9 C 57 % 1017,6 hPa 0,0 l/m 0,0 km/h (0 Bft) SW 225 6,5 C 0,0 C 0,0 km/h (0 Bft)
07.04.2014 19:35 14,6 C 57 % 1017,6 hPa 0,0 l/m 0,0 km/h (0 Bft) SW 225 6,2 C 0,0 C 0,0 km/h (0 Bft)
07.04.2014 19:40 14,5 C 58 % 1017,6 hPa 0,0 l/m 0,0 km/h (0 Bft) SW 225 6,3 C 0,0 C 0,0 km/h (0 Bft)
07.04.2014 19:45 14,5 C 57 % 1017,6 hPa 0,0 l/m 0,0 km/h (0 Bft) SW 225 6,1 C 0,0 C 0,0 km/h (0 Bft)
07.04.2014 19:50 14,2 C 59 % 1017,6 hPa 0,0 l/m 0,0 km/h (0 Bft) SW 225 6,3 C 0,0 C 0,0 km/h (0 Bft)
07.04.2014 19:55 13,4 C 62 % 1017,6 hPa 0,0 l/m 0,0 km/h (0 Bft) SW 225 6,3 C 0,0 C 0,0 km/h (0 Bft)
07.04.2014 20:00 13,4 C 62 % 1017,6 hPa 0,0 l/m 0,0 km/h (0 Bft) SW 225 6,3 C 0,0 C 0,0 km/h (0 Bft)
07.04.2014 20:05 13,2 C 63 % 1017,6 hPa 0,0 l/m 0,0 km/h (0 Bft) SW 225 6,3 C 0,0 C 0,0 km/h (0 Bft)
07.04.2014 20:10 13,2 C 63 % 1017,9 hPa 0,0 l/m 0,0 km/h (0 Bft) SW 225 6,3 C 0,0 C 0,0 km/h (0 Bft)
07.04.2014 20:15 13,1 C 64 % 1017,9 hPa 0,0 l/m 0,0 km/h (0 Bft) SW 225 6,4 C 0,0 C 0,0 km/h (0 Bft)
07.04.2014 20:20 13,0 C 64 % 1017,9 hPa 0,0 l/m 0,0 km/h (0 Bft) SW 225 6,4 C 0,0 C 0,0 km/h (0 Bft)
07.04.2014 20:25 13,0 C 65 % 1017,9 hPa 0,0 l/m 0,0 km/h (0 Bft) SW 225 6,6 C 0,0 C 0,0 km/h (0 Bft)
07.04.2014 20:30 12,9 C 66 % 1017,8 hPa 0,0 l/m 0,0 km/h (0 Bft) SW 225 6,7 C 0,0 C 0,0 km/h (0 Bft)
07.04.2014 20:35 12,5 C 67 % 1017,8 hPa 0,0 l/m 0,0 km/h (0 Bft) SW 225 6,5 C 0,0 C 0,0 km/h (0 Bft)
07.04.2014 20:40 12,6 C 67 % 1017,8 hPa 0,0 l/m 0,0 km/h (0 Bft) SW 225 6,6 C 0,0 C 0,0 km/h (0 Bft)
07.04.2014 20:45 12,4 C 69 % 1017,8 hPa 0,0 l/m 0,0 km/h (0 Bft) SW 225 6,9 C 0,0 C 0,0 km/h (0 Bft)
07.04.2014 20:50 12,2 C 69 % 1018,1 hPa 0,0 l/m 0,0 km/h (0 Bft) SW 225 6,7 C 0,0 C 0,0 km/h (0 Bft)
07.04.2014 20:55 12,2 C 69 % 1018,1 hPa 0,0 l/m 0,0 km/h (0 Bft) SW 225 6,7 C 0,0 C 0,0 km/h (0 Bft)
07.04.2014 21:00 11,9 C 71 % 1018,1 hPa 0,0 l/m 0,0 km/h (0 Bft) SW 225 6,8 C 0,0 C 0,0 km/h (0 Bft)
07.04.2014 21:05 11,8 C 70 % 1018,1 hPa 0,0 l/m 0,0 km/h (0 Bft) SW 225 6,5 C 0,0 C 0,0 km/h (0 Bft)
07.04.2014 21:10 11,9 C 71 % 1018,1 hPa 0,0 l/m 0,0 km/h (0 Bft) SW 225 6,8 C 0,0 C 0,0 km/h (0 Bft)
07.04.2014 21:15 11,8 C 71 % 1018,1 hPa 0,0 l/m 0,0 km/h (0 Bft) SW 225 6,7 C 0,0 C 0,0 km/h (0 Bft)
07.04.2014 21:20 11,7 C 70 % 1018,1 hPa 0,0 l/m 0,0 km/h (0 Bft) SW 225 6,4 C 0,0 C 0,0 km/h (0 Bft)
07.04.2014 21:25 11,6 C 69 % 1018,1 hPa 0,0 l/m 0,0 km/h (0 Bft) SW 225 6,1 C 0,0 C 0,0 km/h (0 Bft)
07.04.2014 21:30 11,2 C 69 % 1017,7 hPa 0,0 l/m 0,0 km/h (0 Bft) SW 225 5,7 C 0,0 C 0,0 km/h (0 Bft)
07.04.2014 21:35 11,1 C 69 % 1017,7 hPa 0,0 l/m 0,0 km/h (0 Bft) SW 225 5,6 C 0,0 C 0,0 km/h (0 Bft)
07.04.2014 21:40 10,9 C 70 % 1017,7 hPa 0,0 l/m 0,0 km/h (0 Bft) SW 225 5,6 C 0,0 C 0,0 km/h (0 Bft)
07.04.2014 21:45 10,6 C 70 % 1017,7 hPa 0,0 l/m 0,0 km/h (0 Bft) SW 225 5,4 C 0,0 C 0,0 km/h (0 Bft)
07.04.2014 21:50 10,6 C 71 % 1017,9 hPa 0,0 l/m 0,0 km/h (0 Bft) SW 225 5,6 C 0,0 C 0,0 km/h (0 Bft)
07.04.2014 21:55 10,4 C 72 % 1017,9 hPa 0,0 l/m 0,0 km/h (0 Bft) SW 225 5,6 C 0,0 C 0,0 km/h (0 Bft)
07.04.2014 22:00 10,2 C 72 % 1017,9 hPa 0,0 l/m 0,0 km/h (0 Bft) SW 225 5,4 C 0,0 C 0,0 km/h (0 Bft)
07.04.2014 22:05 10,3 C 72 % 1017,9 hPa 0,0 l/m 0,0 km/h (0 Bft) SW 225 5,5 C 0,0 C 0,0 km/h (0 Bft)
07.04.2014 22:10 10,0 C 72 % 1018,0 hPa 0,0 l/m 0,0 km/h (0 Bft) SW 225 5,2 C 0,0 C 0,0 km/h (0 Bft)
07.04.2014 22:15 9,9 C 74 % 1018,0 hPa 0,0 l/m 0,0 km/h (0 Bft) SW 225 5,5 C 0,0 C 0,0 km/h (0 Bft)
07.04.2014 22:20 10,2 C 75 % 1018,0 hPa 0,0 l/m 0,0 km/h (0 Bft) SW 225 6,0 C 0,0 C 0,0 km/h (0 Bft)
07.04.2014 22:25 10,5 C 75 % 1018,0 hPa 0,0 l/m 0,0 km/h (0 Bft) SW 225 6,3 C 0,0 C 0,0 km/h (0 Bft)
07.04.2014 22:30 10,6 C 75 % 1018,2 hPa 0,0 l/m 0,0 km/h (0 Bft) SW 225 6,4 C 0,0 C 0,0 km/h (0 Bft)
07.04.2014 22:35 10,3 C 76 % 1018,2 hPa 0,0 l/m 0,0 km/h (0 Bft) SW 225 6,3 C 0,0 C 0,0 km/h (0 Bft)
07.04.2014 22:40 10,1 C 75 % 1018,2 hPa 0,0 l/m 0,0 km/h (0 Bft) SW 225 5,9 C 0,0 C 0,0 km/h (0 Bft)
07.04.2014 22:44 9,9 C 76 % 1018,2 hPa 0,0 l/m 0,0 km/h (0 Bft) SW 225 5,9 C 0,0 C 0,0 km/h (0 Bft)
07.04.2014 22:45 9,9 C 76 % 1018,2 hPa 0,0 l/m 0,0 km/h (0 Bft) SW 225 5,9 C 0,0 C 0,0 km/h (0 Bft)
07.04.2014 22:50 9,7 C 76 % 1018,2 hPa 0,0 l/m 0,0 km/h (0 Bft) SW 225 5,7 C 0,0 C 0,0 km/h (0 Bft)
07.04.2014 22:55 9,3 C 77 % 1018,2 hPa 0,0 l/m 0,0 km/h (0 Bft) SW 225 5,5 C 0,0 C 0,0 km/h (0 Bft)
07.04.2014 23:00 9,6 C 78 % 1018,2 hPa 0,0 l/m 0,0 km/h (0 Bft) SW 225 6,0 C 0,0 C 0,0 km/h (0 Bft)
07.04.2014 23:05 9,5 C 77 % 1018,2 hPa 0,0 l/m 0,0 km/h (0 Bft) SW 225 5,7 C 0,0 C 0,0 km/h (0 Bft)
07.04.2014 23:10 9,4 C 76 % 1018,2 hPa 0,0 l/m 0,0 km/h (0 Bft) SW 225 5,4 C 0,0 C 0,0 km/h (0 Bft)
07.04.2014 23:15 9,4 C 76 % 1018,2 hPa 0,0 l/m 0,0 km/h (0 Bft) SW 225 5,4 C 0,0 C 0,0 km/h (0 Bft)
07.04.2014 23:20 9,1 C 76 % 1018,2 hPa 0,0 l/m 0,0 km/h (0 Bft) SW 225 5,1 C 0,0 C 0,0 km/h (0 Bft)
07.04.2014 23:25 8,9 C 76 % 1018,2 hPa 0,0 l/m 0,0 km/h (0 Bft) SW 225 4,9 C 0,0 C 0,0 km/h (0 Bft)
07.04.2014 23:30 8,8 C 77 % 1018,1 hPa 0,0 l/m 0,0 km/h (0 Bft) SW 225 5,0 C 0,0 C 0,0 km/h (0 Bft)
07.04.2014 23:35 8,4 C 77 % 1018,1 hPa 0,0 l/m 0,0 km/h (0 Bft) SW 225 4,6 C 0,0 C 0,0 km/h (0 Bft)
07.04.2014 23:40 8,4 C 78 % 1018,1 hPa 0,0 l/m 0,0 km/h (0 Bft) SW 225 4,8 C 0,0 C 0,0 km/h (0 Bft)
07.04.2014 23:45 8,5 C 78 % 1018,1 hPa 0,0 l/m 0,0 km/h (0 Bft) SW 225 4,9 C 0,0 C 0,0 km/h (0 Bft)
07.04.2014 23:50 8,2 C 78 % 1017,9 hPa 0,0 l/m 0,0 km/h (0 Bft) SW 225 4,6 C 0,0 C 0,0 km/h (0 Bft)
07.04.2014 23:55 8,5 C 79 % 1017,9 hPa 0,0 l/m 0,0 km/h (0 Bft) SW 225 5,1 C 0,0 C 0,0 km/h (0 Bft)
_ Min-Zeit 07:05 15:20 18:45 - 23:55 - - 07:05 23:55 23:55
Minimum _ 3,4 C 32 % 1017,4 hPa - 0,0 km/h (0 Bft) - - 2,8 C 0,0 C 0,0 km/h (0 Bft)
_ Max-Zeit 15:20 08:00 13:25 23:55 23:55 - - 10:15 23:55 23:55
Maximum _ 21,5 C 96 % 1022,3 hPa 0,0 l/m 0,0 km/h
SW (0 Bft)
- - 13,3 C 0,0 C 0,0 km/h
SW (0 Bft)
Durchschnitt _ 12,2 C 68 % 1020,2 hPa #0,0 l/m 0,0 km/h (0 Bft) - - - 5,2 C 0,0 C 0,0 km/h (0 Bft)